DMSP 5D-2 F13 DEB, 40407

Orbit data source: Space-Track

DMSP 5D-2 F13 DEB, 40407 is space debris in SSO originally from a launch on Fri, 24 Mar 1995 UTC launched from the Air Force Western Test Range (AFWTR). Debris objects in space refer to the collection of defunct objects orbiting the Earth. Examples of debris include non-operational satellites, rocket bodies, and fragments generated from explosions, collisions, or faulty payload assembly.

Loading next visibility...
Identifier
40407, 1995-015U
Orbit
SSO
Country
Flag of USUS
Related business
Manufacturer
Unknown
Mission
Spacecraft
Bus & Motor
Unknown
Mass
Unknown
Launch date (UTC)
1995-03-24 (31 years ago)
Launch vehicle
Unknown
Launch site
Air Force Western Test Range (AFWTR)
Object type
Payload
Rocket body
Debris
Shape & HBR
Unknown shape, 0.1 m
Radar Cross Section
Small (<0.1 m²)

Expand to show TLE details & history
Last TLE update: 20 hours ago

TLE from 20 hours ago
0 DMSP 5D-2 F13 DEB
1 40407U 95015U   26118.46743013  .00000234  00000-0  13679-3 0  9999
2 40407  98.8022 133.6394 0005127 300.6005  59.4664 14.17634914577478
Epoch: 2026-04-28T11:13Z
TLE epoch observation values (Epoch: 2026-04-28T11:13:05.963Z)
Latitude
0.00001°
Longitude
108.92223°
Altitude
834.393 km
Speed
7.437 km/s
True Right ascension
08h 54m 33s
True Declination
0° 00' 00"
Sunlit
Object was in daylight at epoch
Visualization orbit readout
Latitude
Unknown
Longitude
Unknown
Altitude
Unknown
Speed
Unknown
Apparent Right ascension
Unknown
Apparent Declination
Unknown
Sunlit
N/A
Visualization observer readout
Local Sidereal Time
14:42:06
Azimuth
Unknown
Elevation
Unknown
Doppler factor
Unknown
Orbital elements
Apogee altitude
834.225 km
Perigee altitude
826.833 km
Semi-major axis
7,208.666 km
Eccentricity
0.00051
Inclination
98.8022°
RAAN
133.6394°
Arg. of periapsis
300.6005°
True anomaly
59.51702°
Mean anomaly
59.4664°
Eccentric anomaly
59.49171°
Mean motion
3.54618 °/min
Orbital period
101.52 mins
BSTAR
0.00013679
Loading maneuver chart data...
Computing Atmospheric mass density...

Documentation

Showing up to 5 results
|